Regional Weather Roundup
Issued by NWS

Home | Current Version | Previous Version | Graphics & Text | Print | Product List | Glossary On
Versions: 1 2 3 4 5 6 7 8 9 10 11 12 13 14 15 16 17 18 19 20 21 22 23 24 25 26 27 28 29 30 31 32 33 34 35 36 37 38 39 40 41 42 43 44 45 46 47 48 49 50
000
ASUS43 KDMX 211706
RWRIA

WEATHER ROUNDUP FOR IOWA
NATIONAL WEATHER SERVICE DES MOINES IA
1100 AM CST SUN JAN 21 2018

NOTE: "FAIR" INDICATES FEW OR NO CLOUDS BELOW 12,000 FEET WITH NO
SIGNIFICANT WEATHER AND/OR OBSTRUCTIONS TO VISIBILITY.

* - THESE STATIONS ARE NOT NWS STATIONS...THUS NOT UNDER NWS
QUALITY CONTROL.  THEY ALSO DO NOT REPORT WEATHER SUCH
AS PRECIPITATION OR FOG.

IAZ001>003-012>014-020>022-031>034-043>046-211800-
   NORTHWEST IOWA

CITY           SKY/WX    TMP DP  RH WIND       PRES   REMARKS
CARROLL *      CLOUDY    37  36  93 NE10      29.84F FOG     WCI  30
CHEROKEE *     CLOUDY    36  33  88 NE7       29.89S WCI  30
DENISON *      CLOUDY    37  36  93 NE12      29.85S FOG     WCI  30
LE MARS *      CLOUDY    37  32  81 NE8       29.89F WCI  31
ORANGE CITY *  CLOUDY    37  34  87 NE9       29.89F WCI  31
SHELDON *      CLOUDY    37  32  81 NE15      29.90S WCI  28
SIOUX CITY     CLOUDY    37  31  78 NE10      29.87F WCI  30
SPENCER        CLOUDY    37  31  78 NE14      29.91S WCI  28
STORM LAKE *   CLOUDY    34  32  93 NE13G20   29.87S WCI  25
$$

IAZ055>058-069>071-079>083-090>094-211800-
   SOUTHWEST IOWA

CITY           SKY/WX    TMP DP  RH WIND       PRES   REMARKS
ATLANTIC *     CLOUDY    39  39 100 NE9       29.81F FOG     WCI  33
AUDUBON *      FOG       37  36  93 E8        29.83S VSB 1/2 WCI  31
CLARINDA *     CLOUDY    43  43 100 NE6         N/A  FOG
COUNCIL BLFS * MIX PCPN  39  39 100 NE9       29.79S VSB 3/4 WCI  33
CRESTON *      FOG       39  39 100 NE12      29.82R VSB 1/4 WCI  32
HARLAN  *      MIX PCPN  37  37 100 N10       29.84F VSB 1   WCI  30
LAMONI         CLOUDY    47  46  97 CALM      29.80S FOG
RED OAK *      LGT RAIN  41  41 100 NE8       29.79F
SHENANDOAH *   CLOUDY    41  41 100 NE8       29.78F FOG
$$

IAZ047>049-059>061-072>074-084-211800-
   CENTRAL IOWA

CITY           SKY/WX    TMP DP  RH WIND       PRES   REMARKS
AMES           CLOUDY    39  39 100 E9        29.86F FOG     WCI  33
ANKENY *       CLOUDY    41  39  93 E6        29.86F FOG
BOONE *        FOG       39  37  93 NE13      29.84S VSB<1/4 WCI  32
CHARITON *     FOG       43  43 100 E7        29.82S VSB 3/4
DES MOINES     DRIZZLE   41  39  93 NE10      29.84F FOG
GRINNELL*      CLOUDY    39  38  94 E9        29.87F FOG     WCI  33
KNOXVILLE *    FOG       41  39  93 E8        29.83S VSB 1/4
MARSHALLTOWN   CLOUDY    38  38 100 E9        29.88S FOG     WCI  31
NEWTON *       CLOUDY    41  39  93 E9        29.86S FOG
PELLA *        CLOUDY    40  39  97 E3        29.86F FOG
PERRY *        CLOUDY    40  40  97 E7        29.84F FOG
$$

IAZ004>006-015-016-023>025-035-036-211800-
   NORTH CENTRAL IOWA

CITY           SKY/WX    TMP DP  RH WIND       PRES   REMARKS
ALGONA *       CLOUDY    36 N/A N/A NE12      29.89F WCI  27
CLARION *      CLOUDY    34  34 100 E13       29.88F FOG     WCI  25
ESTHERVILLE    CLOUDY    34  32  92 NE10      29.92R WCI  26
FORT DODGE *   CLOUDY    35  33  92 NE7       29.88S FOG     WCI  29
MASON CITY     CLOUDY    35  32  88 NE8       29.92S FOG     WCI  29
FOREST CITY *    N/A     37  34  87 NE6       29.91S WCI  33
WEBSTER CITY * CLOUDY    37  37 100 E12       29.85F FOG     WCI  30
IOWA FALLS *   CLOUDY    37  37  97 E7        29.89S FOG     WCI  32
$$

IAZ007>011-017>019-026>030-037>042-050>054-066-211800-
   NORTHEAST IOWA

CITY           SKY/WX    TMP DP  RH WIND       PRES   REMARKS
CEDAR RAPIDS   CLOUDY    42  38  85 E9        29.88F FOG
CHARLES CITY * MIX PCPN  34  34 100 E5        29.92S WCI  30
CLINTON *      CLOUDY    41  38  89 E7        29.93F
DECORAH *      FOG       30  30 100 CALM      29.93R VSB<1/4
DUBUQUE        CLOUDY    35  33  92 NE8       29.92F FOG     WCI  29
MONTICELLO *   CLOUDY    39  37  93 E3        29.91S FOG
OELWEIN *      CLOUDY    37  37 100 E8        29.91S FOG     WCI  31
WATERLOO       CLOUDY    38  37  97 NE8       29.90S FOG     WCI  32
$$

IAZ064-065-067-068-078-211800-
   EAST CENTRAL IOWA

CITY           SKY/WX    TMP DP  RH WIND       PRES   REMARKS
DAVENPORT      CLOUDY    44  39  82 SE6       29.93S HAZE
IOWA CITY      CLOUDY    43  38  82 E6        29.91S
MT. PLEASANT * CLOUDY    45  41  87 SE6       29.88F
MUSCATINE *    FOG       41  41 100 CALM      29.91F VSB 1/2
QUAD CITIES    CLOUDY    43  41  93 E5        29.90F FOG
$$

IAZ062-063-075>077-085>089-095>099-211800-
   SOUTHEAST IOWA

CITY           SKY/WX    TMP DP  RH WIND       PRES   REMARKS
BURLINGTON     CLOUDY    46  41  82 SE3       29.88F
FAIRFIELD *    CLOUDY    45  41  87 E8        29.86F
FORT MADISON * CLOUDY    46  45  93 S6        29.89S
KEOKUK *       CLOUDY    46  43  87 SE3       29.87F
OSKALOOSA *    CLOUDY    41  40  97 E7        29.85F FOG
OTTUMWA        CLOUDY    43  40  89 E9        29.85F
WASHINGTON *   CLOUDY    43  43 100 E8        29.89F FOG
$$

ABBREVIATIONS USED IN REMARKS
   TC - TEMPERATURES IN CELSIUS
  WCI - WIND CHILL INDEX
   HX - HEAT INDEX
  VSB - VISIBILITY
$$




USA.gov is the U.S. government's official web portal to all federal, state and local government web resources and services.